Regional Weather Roundup
Issued by NWS Green Bay, WI

Current Version | Previous Version | Text Only | Print | Product List | Glossary On
Versions: 1 2 3 4 5 6 7 8 9 10 11 12 13 14 15 16 17 18 19 20 21 22 23 24 25 26 27 28 29 30 31 32 33 34 35 36 37 38 39 40 41 42 43 44 45 46 47 48 49 50
000
ASUS43 KGRB 171600
RWRGRB

NORTH-CENTRAL AND NORTHEAST WISCONSIN REGIONAL WEATHER ROUNDUP
NATIONAL WEATHER SERVICE GREEN BAY WI
1000 AM CST SUN FEB 17 2019

WIZ005-009-010>012-018-019-171700-
NORTH CENTRAL WISCONSIN

CITY           SKY/WX    TMP DP  RH WIND       PRES   REMARKS
IRONWOOD       FLURRIES  14   9  80 E5        30.12R WCI   6
MANITOWISH WTR NOT AVBL
ARBOR VITAE    PTSUNNY   17  10  76 E6        30.04R WCI   8
EAGLE RIVER    FAIR      15   8  75 E6        30.04R WCI   6
LAND O LAKES   FLURRIES  12  10  88 N6        30.07S WCI   3
RHINELANDER    PTSUNNY   15   8  73 E12G18    30.03R WCI   2
PHILLIPS       FAIR      13   8  80 NE9       30.03S WCI   0
ANTIGO         CLOUDY    15  10  82 NE13      30.02R WCI   1
TOMAHAWK       NOT AVBL
MERRILL        NOT AVBL
$$

WIZ013-073-171700-
NORTHEAST WISCONSIN

CITY           SKY/WX    TMP DP  RH WIND       PRES   REMARKS
IRON MOUNTAIN  CLOUDY    14  10  84 N7        30.07S WCI   4
MARINETTE      FLURRIES  21  13  71 NE17      30.09R WCI   7
$$

WIZ017-030-035>037-045-171700-
CENTRAL WISCONSIN

CITY           SKY/WX    TMP DP  RH WIND       PRES   REMARKS
MEDFORD        CLOUDY    15   9  78 NE12      30.00R WCI   1
WAUSAU         CLOUDY    18  11  74 NE8       29.99F WCI   8
MOSINEE        CLOUDY    18  12  79 NE13      30.00F WCI   4
MARSHFIELD     CLOUDY    18  13  80 E13       29.97S WCI   5
WISC RAPIDS    CLOUDY    20  11  68 E12G22    29.99S WCI   8
STEVENS POINT  NOT AVBL
WAUPACA        CLOUDY    22  15  73 NE12      30.02S
SHAWANO        CLOUDY    21  14  73 NE10      30.06R
CLINTONVILLE   CLOUDY    19  12  74 NE10G17   30.04R WCI   7
WAUTOMA        NOT AVBL
$$

WIZ038-039-048-051-171700-
FOX VALLEY

CITY           SKY/WX    TMP DP  RH WIND       PRES   REMARKS
NWS GREEN BAY  CLOUDY    21  15  78 NE15      30.04S WCI   8
APPLETON       CLOUDY    21  12  68 NE8       30.00R
OSHKOSH        CLOUDY    24  17  74 E14       29.97F
FOND DU LAC    CLOUDY    24  16  71 E14       29.97F
$$

WIZ022-050-052-171700-
EAST CENTRAL WISCONSIN

CITY           SKY/WX    TMP DP  RH WIND       PRES   REMARKS
EPHRAIM        NOT AVBL
WASHINGTON ISL FLURRIES  18  15  85 NE9G16    30.08S WCI   7
STURGEON BAY   FLURRIES  24  17  74 E10       30.05R
MANITOWOC      CLOUDY    24  17  74 E17       30.02S
SHEBOYGAN      CLOUDY    24  16  71 E13       29.99F
$$

LMZ563-521-522-541>543-171700-
LAKESHORE

STATION/POSITION TIME  TEMP    WIND        PRES    VSBY  WAVE
                       AIR SEA DIR/SP/G                  HT/PER
                 (UTC) (F)     (DEG/KT/KT) (MB)    (MI)  (FT/S)
SHEBOYGAN LKSHOR 1500   24      80/ 18/ 22 1016.7R
KEWAUNEE LKSHORE 1524   24      90/ 13/ 18 1016.6
NORTHPORT PIER   1540   20      10/  5/  7 1019.0S
CHAMBERS ISLAND  1540   17      10/ 15/ 19 1017.9S
MENOMINEE LKSHOR 1524   17 35   20/ 18/ 20 1018.3
$$




USA.gov is the U.S. government's official web portal to all federal, state and local government web resources and services.